RYR76VT EIDW-LEBL

Flight info

Callsign RYR76VT
Flight time N/A
Altitude 35000
Route PESIT2J PESIT DCT BAKUR DCT GUBJE DCT GISOK DCT TACQI DCT MANIG DCT KORER UM616 TUPAR DCT CNA DCT SECHE DCT AGN DCT TOU DCT LOMRA DCT ROCAN DCT PUMAL
Aircraft B738/M-SDE2E3FGHIRWXY/LB1

Departure

Time 2026-05-07 20:40
Airport Dublin Airport (EIDW)

Arrival

Time N/A
Airport Josep Tarradellas Barcelona-El Prat Airport (LEBL)
Time Latitude Longitude Altitude Speed Heading
2026-05-07 19:48 53.43001 -6.24813 210 ft 0 kts
2026-05-07 20:27 53.42981 -6.24814 210 ft 3 kts 352°
2026-05-07 20:28 53.42958 -6.24804 210 ft 3 kts 325°
2026-05-07 20:28 53.42947 -6.24787 210 ft 3 kts 303°
2026-05-07 20:28 53.42938 -6.24751 210 ft 0 kts 277°
2026-05-07 20:33 53.42939 -6.24755 210 ft 1 kts 277°
2026-05-07 20:33 53.42941 -6.24788 218 ft 4 kts 276°
2026-05-07 20:33 53.42945 -6.24862 210 ft 9 kts 274°
2026-05-07 20:33 53.42952 -6.24996 214 ft 14 kts 276°
2026-05-07 20:34 53.42962 -6.25187 210 ft 17 kts 273°
2026-05-07 20:34 53.42953 -6.25361 215 ft 16 kts 313°
2026-05-07 20:34 53.43051 -6.25431 211 ft 15 kts 335°
2026-05-07 20:34 53.43147 -6.25498 214 ft 15 kts 337°
2026-05-07 20:35 53.43237 -6.25565 210 ft 14 kts 336°
2026-05-07 20:35 53.43324 -6.25628 215 ft 13 kts 336°
2026-05-07 20:35 53.43402 -6.25615 214 ft 13 kts 63°
2026-05-07 20:35 53.43402 -6.25467 210 ft 13 kts 94°
2026-05-07 20:36 53.43394 -6.25323 210 ft 12 kts 95°
2026-05-07 20:36 53.43386 -6.25182 215 ft 12 kts 95°
2026-05-07 20:36 53.43378 -6.25045 210 ft 12 kts 95°
2026-05-07 20:36 53.43370 -6.24899 210 ft 14 kts 95°
2026-05-07 20:37 53.43361 -6.24728 213 ft 16 kts 95°
2026-05-07 20:37 53.43393 -6.24564 210 ft 15 kts 18°
2026-05-07 20:37 53.43479 -6.24546 214 ft 12 kts
2026-05-07 20:37 53.43525 -6.24605 217 ft 8 kts 281°
2026-05-07 20:38 53.43527 -6.24631 214 ft 0 kts 275°
2026-05-07 20:39 53.43531 -6.24705 215 ft 24 kts 275°
2026-05-07 20:39 53.43566 -6.25358 211 ft 88 kts 275°
2026-05-07 20:39 53.43641 -6.26684 210 ft 139 kts 277°
2026-05-07 20:39 53.43733 -6.28479 321 ft 168 kts 274°
2026-05-07 20:40 53.43826 -6.30411 942 ft 163 kts 273°
2026-05-07 20:40 53.43934 -6.32331 1439 ft 170 kts 281°
2026-05-07 20:40 53.44598 -6.34085 1671 ft 191 kts 316°
2026-05-07 20:40 53.45572 -6.35776 1890 ft 209 kts 309°
2026-05-07 20:41 53.46585 -6.37614 2099 ft 225 kts 319°
2026-05-07 20:41 53.47824 -6.39379 2261 ft 243 kts 314°
2026-05-07 20:41 53.48997 -6.41553 2591 ft 258 kts 308°
2026-05-07 20:41 53.50117 -6.43921 3225 ft 260 kts 306°
2026-05-07 20:42 53.51025 -6.46541 3847 ft 261 kts 282°
2026-05-07 20:42 53.51008 -6.49546 4531 ft 259 kts 252°
2026-05-07 20:42 53.50170 -6.52192 5198 ft 260 kts 226°
2026-05-07 20:42 53.48708 -6.53883 5824 ft 262 kts 199°
2026-05-07 20:43 53.46898 -6.54193 6459 ft 267 kts 172°
2026-05-07 20:43 53.45115 -6.53280 7124 ft 271 kts 159°
2026-05-07 20:43 53.43377 -6.52000 7763 ft 275 kts 156°
2026-05-07 20:43 53.41630 -6.50642 8443 ft 278 kts 156°
2026-05-07 20:44 53.39872 -6.49267 9122 ft 281 kts 156°
2026-05-07 20:44 53.38091 -6.47885 9788 ft 284 kts 156°
2026-05-07 20:44 53.36276 -6.46488 10344 ft 294 kts 156°
2026-05-07 20:44 53.34343 -6.45013 10501 ft 316 kts 156°
2026-05-07 20:45 53.32279 -6.43444 10735 ft 334 kts 156°
2026-05-07 20:45 53.30134 -6.41821 11243 ft 342 kts 156°
2026-05-07 20:45 53.27992 -6.40206 11886 ft 345 kts 156°
2026-05-07 20:45 53.25794 -6.38556 12593 ft 347 kts 157°
2026-05-07 20:46 53.23582 -6.36901 13259 ft 350 kts 157°
2026-05-07 20:46 53.21352 -6.35229 13896 ft 354 kts 157°
2026-05-07 20:46 53.19095 -6.33545 14566 ft 357 kts 157°
2026-05-07 20:46 53.16818 -6.31848 15269 ft 359 kts 157°
2026-05-07 20:47 53.14527 -6.30143 15914 ft 363 kts 157°
2026-05-07 20:47 53.12212 -6.28422 16564 ft 366 kts 157°
2026-05-07 20:47 53.09877 -6.26688 17190 ft 369 kts 157°
2026-05-07 20:47 53.07520 -6.24939 17821 ft 372 kts 157°
2026-05-07 20:48 53.05145 -6.23181 18416 ft 375 kts 157°
2026-05-07 20:48 53.02782 -6.21433 18990 ft 379 kts 157°
2026-05-07 20:48 53.00361 -6.19645 19556 ft 382 kts 157°
2026-05-07 20:48 52.97923 -6.17846 20108 ft 385 kts 157°
2026-05-07 20:49 52.95462 -6.16033 20659 ft 388 kts 157°
2026-05-07 20:49 52.92983 -6.14208 21182 ft 391 kts 157°
2026-05-07 20:49 52.90484 -6.12373 21688 ft 394 kts 157°
2026-05-07 20:49 52.87972 -6.10527 22182 ft 397 kts 157°
2026-05-07 20:50 52.85431 -6.08666 22682 ft 400 kts 157°
2026-05-07 20:50 52.82910 -6.06823 23137 ft 403 kts 157°
2026-05-07 20:50 52.80338 -6.04942 23585 ft 406 kts 157°
2026-05-07 20:50 52.77746 -6.03050 24046 ft 409 kts 157°
2026-05-07 20:51 52.75139 -6.01147 24491 ft 411 kts 157°
2026-05-07 20:51 52.72520 -5.99239 24914 ft 413 kts 157°
2026-05-07 20:51 52.69877 -5.97316 25326 ft 416 kts 157°
2026-05-07 20:51 52.67222 -5.95386 25736 ft 418 kts 157°
2026-05-07 20:52 52.64550 -5.93448 26132 ft 421 kts 157°